Showing default

SCOT-1 (SCOT), 62617

Orbit data source: Space-Track

SCOT-1 (SCOT), 62617 is a Singaporean payload satellite in SSO that was launched on Tue, 14 Jan 2025 UTC via an FALCON 9 launch vehicle from the Air Force Western Test Range (AFWTR). Payload-class satellites include a variety of spacecraft equipped with specific instruments for various scientific and technological missions. These include communications satellites like Starlink; space stations such as the ISS; scientific satellites like the Hubble; Earth observation satellites from companies like Planet Labs, Umbra, and HawkEye 360; GPS; miniature CubeSats for education and research; and military/defense satellites.

Loading next visibility...
Identifier
62617, 2025-009J
Orbit
SSO
Country
Flag of UnknownUnknown / SING
Related business
Manufacturer
OrbAstro
Mission
Operational Commercial Early Warn
Bus & Motor
CUBESAT 6U, Unknown motor
Mass
~10 kg wet, ~10 kg dry
Launch date (UTC)
2025-01-14 (9 months ago)
Launch vehicle
FALCON 9
Launch site
Air Force Western Test Range (AFWTR)
Object type
Payload
Rocket body
Debris
Shape & HBR
Box + 2 Pan, 0.2 m
Radar Cross Section
0.080 m², Medium (>0.1 m² and < 1m²)

Expand to show TLE details & history
Last TLE update: 1 day ago

TLE from 1 day ago
0 SCOT-1 (SCOT)
1 62617U 25009J   25290.17320280  .00037641  00000-0  12755-2 0  9992
2 62617  97.4109   9.8624 0006237 105.5851 254.6079 15.30445200 41918
Epoch: 2025-10-17T04:09Z
TLE epoch observation values (Epoch: 2025-10-17T04:09:24.721Z)
Latitude
-0.00001°
Longitude
-78.41298°
Altitude
478.725 km
Speed
7.626 km/s
True Right ascension
00h 39m 26s
True Declination
0° 00' 00"
Sunlit
Object was in full shadow at epoch
Visualization orbit readout
Latitude
Unknown
Longitude
Unknown
Altitude
Unknown
Speed
Unknown
Apparent Right ascension
Unknown
Apparent Declination
Unknown
Sunlit
N/A
Visualization observer readout
Local Sidereal Time
00:12:52
Azimuth
Unknown
Elevation
Unknown
Doppler factor
Unknown
Orbital elements
Apogee altitude
475.707 km
Perigee altitude
467.163 km
Semi-major axis
6,849.572 km
Eccentricity
0.00062
Inclination
97.4109°
RAAN
9.8624°
Arg. of periapsis
105.5851°
True anomaly
254.53901°
Mean anomaly
254.6079°
Eccentric anomaly
254.57345°
Mean motion
3.82867 °/min
Orbital period
94.03 mins
BSTAR
0.0012755
Loading maneuver chart data...
Computing Atmospheric mass density...
Loading historical data...
Loading historical data...
Loading historical data...
Loading historical data...
Loading historical data...
Loading historical data...
Loading historical data...

Documentation

Showing up to 5 results
|